Voltar ao catálogo

STARLINK-36825

AtivoComunicaçõesVLEO
NORAD 68041·PAYLOAD·🇺🇸 United States

Lançado Mar 2, 2026 de Vandenberg Space Force Base

Loading…

Próximas Passagens (próximas 24 horas)

TLE

AtualizadoSource: CelesTrak SupGP

Época: Sep 14, 2026, 23:27 UTC

1 68041C 26041B   26257.97756944  .00025758  00000+0  76085-3 0  2577
2 68041  53.1581 245.3392 0001596  90.0958 276.3223 15.34384392    12

Acompanhe STARLINK-36825 em tempo real com AllMySat

Download on the App Store